Weather History for Ithaca, NY

Change the Weather History Date:

Thursday, December 26, 2013

  Actual Average Record
Temperature  
Mean Temperature 26 °F -  
Max Temperature 32 °F 31 °F 61 °F (1982)
Min Temperature 21 °F 16 °F -11 °F (1980)
Degree Days  
Heating Degree Days 38    
Moisture  
Dew Point 20 °F    
Average Humidity 80    
Maximum Humidity 89    
Minimum Humidity 64    
Precipitation  
Precipitation 0.00 in - - ()
Sea Level Pressure  
Sea Level Pressure 30.19 in    
Wind  
Wind Speed 11 mph (SW)    
Max Wind Speed 16 mph    
Max Gust Speed -    
Visibility 7 miles    
Events Snow    
Averages and records for this station are not official NWS values.
T = Trace of Precipitation, MM = Missing Value Source: NWS Daily Summary

Daily Weather History Graph

Daily Weather History Graph

Search for Another Location

Airport:

Trip Planner

Search our weather history database for the weather conditions in past years. The results will help you decide how hot, cold, wet, or windy it might be!

Date:

Astronomy

Dec. 26, 2013 Rise Set
Actual Time 7:34 AM EST 4:38 PM EST
Civil Twilight 7:02 AM EST 5:10 PM EST
Nautical Twilight 6:26 AM EST 5:46 PM EST
Astronomical Twilight 5:52 AM EST 6:20 PM EST
Moon 12:54 AM EST (12/26) 12:18 PM EST (12/26)
Length of Visible Light 10h 08m
Length of Day
9h 04m
Last Quarter, 38% of the Moon is Illuminated
Dec 26
Last Quarter
Jan 1
New
Jan 7
First Quarter
Jan 15
Full
Jan 24
Last Quarter

Hourly Weather History & Observations

Time (EST) Temp. Windchill Dew Point Humidity Pressure Visibility Wind Dir Wind Speed Gust Speed Precip Events Conditions
12:56 AM 22.1 °F 11.3 °F 13.1 °F 68% 30.27 in 10.0 mi South 10.4 mph - N/A   Overcast
1:56 AM 21.0 °F 8.1 °F 17.1 °F 85% 30.27 in 8.0 mi SSE 13.8 mph - 0.00 in Snow Light Snow
2:56 AM 21.0 °F 9.3 °F 18.1 °F 89% 30.26 in 5.0 mi South 11.5 mph - 0.00 in Snow Light Snow
3:29 AM 21.2 °F 7.8 °F 17.6 °F 86% 30.18 in 3.0 mi SSE 15.0 mph - 0.00 in Snow Light Snow
3:48 AM 21.2 °F 9.5 °F 17.6 °F 86% 30.17 in 6.0 mi South 11.5 mph - 0.00 in Snow Light Snow
3:56 AM 21.0 °F 8.6 °F 18.1 °F 89% 30.23 in 5.0 mi SSE 12.7 mph - 0.00 in Snow Light Snow
4:56 AM 21.0 °F 9.9 °F 18.1 °F 89% 30.21 in 5.0 mi South 10.4 mph - 0.00 in Snow Light Snow
5:56 AM 21.0 °F 8.6 °F 18.1 °F 89% 30.20 in 5.0 mi South 12.7 mph - 0.00 in Snow Light Snow
6:15 AM 21.2 °F 10.1 °F 17.6 °F 86% 30.13 in 2.0 mi South 10.4 mph - 0.00 in Snow Light Snow
6:56 AM 21.0 °F 8.6 °F 18.1 °F 89% 30.19 in 2.0 mi South 12.7 mph - 0.00 in Snow Light Snow
7:14 AM 21.2 °F 8.9 °F 17.6 °F 86% 30.13 in 6.0 mi South 12.7 mph - 0.00 in Snow Light Snow Showers
7:56 AM 22.1 °F 10.0 °F 17.1 °F 81% 30.17 in 10.0 mi South 12.7 mph - 0.00 in   Overcast
8:56 AM 22.1 °F 9.5 °F 18.1 °F 85% 30.17 in 10.0 mi South 13.8 mph - N/A   Overcast
9:56 AM 23.0 °F 11.1 °F 18.1 °F 82% 30.18 in 6.0 mi South 12.7 mph - 0.00 in Snow Light Snow Showers
10:56 AM 24.1 °F 15.2 °F 19.0 °F 81% 30.15 in 7.0 mi South 8.1 mph - 0.00 in Snow Light Snow Showers
11:56 AM 26.1 °F 16.8 °F 20.1 °F 78% 30.13 in 10.0 mi South 9.2 mph - 0.00 in   Mostly Cloudy
12:56 PM 29.1 °F 20.0 °F 21.0 °F 72% 30.12 in 10.0 mi SSW 10.4 mph - N/A   Mostly Cloudy
1:56 PM 32.0 °F 23.6 °F 23.0 °F 69% 30.11 in 10.0 mi WSW 10.4 mph - N/A   Mostly Cloudy
2:56 PM 32.0 °F 23.0 °F 24.1 °F 73% 30.12 in 10.0 mi SW 11.5 mph - 0.00 in   Mostly Cloudy
3:10 PM 32.0 °F 21.2 °F 24.8 °F 75% 30.09 in 2.0 mi WNW 16.1 mph - 0.00 in Snow Light Snow
3:17 PM 30.2 °F 20.2 °F 26.6 °F 86% 30.09 in 0.8 mi WNW 12.7 mph - 0.00 in Snow Light Snow Showers
3:30 PM 30.2 °F 21.9 °F 24.8 °F 80% 30.10 in 10.0 mi NW 9.2 mph - 0.00 in Snow Light Snow Showers
3:56 PM 30.0 °F 21.7 °F 25.2 °F 82% 30.16 in 10.0 mi NNW 9.2 mph - 0.00 in Snow Light Snow
4:56 PM 30.0 °F 21.1 °F 23.0 °F 75% 30.19 in 5.0 mi West 10.4 mph - 0.00 in Snow Light Snow
5:56 PM 28.0 °F 18.6 °F 21.0 °F 75% 30.23 in 10.0 mi West 10.4 mph - 0.00 in   Overcast
6:56 PM 29.1 °F 20.0 °F 18.1 °F 64% 30.25 in 10.0 mi West 10.4 mph - N/A   Overcast
7:56 PM 28.0 °F 20.0 °F 21.0 °F 75% 30.26 in 10.0 mi West 8.1 mph - 0.00 in Snow Light Snow
8:56 PM 28.0 °F 22.8 °F 22.1 °F 78% 30.27 in 10.0 mi West 4.6 mph - 0.00 in   Overcast
9:56 PM 28.0 °F 19.3 °F 19.0 °F 69% 30.27 in 10.0 mi West 9.2 mph - 0.00 in Snow Light Snow
10:56 PM 28.0 °F 20.0 °F 19.0 °F 69% 30.27 in 10.0 mi West 8.1 mph - 0.00 in Snow Light Snow
11:12 PM 28.4 °F 19.1 °F 19.4 °F 69% 30.22 in 10.0 mi WNW 10.4 mph - 0.00 in Snow Light Snow
11:56 PM 26.1 °F 21.9 °F 22.1 °F 85% 30.28 in 9.0 mi North 3.5 mph - 0.00 in Snow Light Snow